www.pogodaiklimat.ru

Погода и климат >> Архив погоды >> Канада >> Нунавут >> Корал-Харбор


ПОГОДА в Корал-Харборе

  • Прогноз погоды в Корал-Харборе
  • Монитор погоды в Корал-Харборе

АРХИВ ПОГОДЫ в Корал-Харборе

Время (UTC), дата Ветер
(напр.,м/с)
 
Видим.   Явления Облачность Т
(С)
Тd
(С)
f
(%)
Тe
(С)
Тes
(С)
Комфортность P
(гПа)
Po
(гПа)
Тmin
(С)
Tmax
(С)
R
(мм)
R24
(мм)
S
(см)
21 9.01 С 5 24 км 6/0
[]
-32.4 -36.1 69 -45 -45 опасность
обморожения
1029.5 1020.7
00 10.01 С 1 24 км ледяные иглы {снег} 6/0
[Ac As Ci fib]
-28.8 -32.8 68 -33 -33 опасность
обморожения
1030.7 1022.0 -35.6 -25.9 0.0 37
03 10.01 С 1 24 км 3/0
[]
-27.8 -32.1 67 -29 -29 1031.5 1022.7
06 10.01 С 1 24 км ледяные иглы {снег} 3/3 600 м
[Sc]
-24.8 -29.5 65 -26 -26 1031.6 1022.9 -35.6 -24.0 0.0 121
09 10.01 С 5 24 км 3/3 600 м
[]
-27.2 -31.5 67 -39 -39 опасность
обморожения
1032.1 1023.4
12 10.01 С 4 24 км ледяные иглы {снег} 3/3 600 м
[Sc]
-28.5 -33.0 65 -39 -39 опасность
обморожения
1032.7 1024.0 -32.0 -24.0 0.0 37
15 10.01 С 5 24 км 5/5 600 м
[]
-29.0 -33.5 65 -41 -41 опасность
обморожения
1033.1 1024.4
18 10.01 С 9 24 км ледяные иглы {снег} 8/0
[Ac As Ci fib]
-24.5 -28.4 70 -39 -39 опасность
обморожения
1032.2 1023.6 -34.0 -23.2 0.0 37
21 10.01 С 10 24 км 6/0
[]
-24.6 -28.4 71 -40 -40 опасность
обморожения
1032.9 1024.2
00 11.01 СВ 6 24 км ледяные иглы {снег} 6/0
[Ac As Ci fib]
-25.8 -29.9 68 -38 -38 опасность
обморожения
1033.7 1025.0 -30.0 -23.2 0.0 37
03 11.01 С 6 24 км ясно -29.5 -33.0 72 -43 -43 опасность
обморожения
1033.9 1025.2
06 11.01 С 6 24 км ледяные иглы {снег} ясно -29.8 -33.2 72 -43 -43 опасность
обморожения
1034.1 1025.4 -31.0 -23.2 0.0 211
09 11.01 С 8 24 км 1/0
[]
-31.4 -35.0 70 -47 -47 опасность
обморожения
1034.7 1026.0
12 11.01 СЗ 7 24 км ледяные иглы {снег} ясно -32.0 -35.8 69 -47 -47 опасность
обморожения
1035.2 1026.5 -32.1 -23.2 0.0 37
15 11.01 С 6 24 км ясно -33.2 -36.9 69 -47 -47 опасность
обморожения
1035.7 1026.9
18 11.01 СЗ 7 24 км ледяные иглы {снег} ясно -32.7 -36.6 68 -48 -48 опасность
обморожения
1035.8 1027.0 -34.0 -28.5 0.0 37
21 11.01 СЗ 6 24 км ясно -34.2 -37.9 69 -49 -49 опасность
обморожения
1036.1 1027.3
00 12.01 С 3 24 км ледяные иглы {снег} ясно -32.7 -36.3 70 -43 -43 опасность
обморожения
1035.4 1026.6 -34.3 -30.8 0.0 37
03 12.01 С 1 24 км ясно -32.2 -35.5 72 -34 -34 опасность
обморожения
1035.0 1026.2
06 12.01 С 1 24 км ледяные иглы {снег} ясно -30.9 -33.8 76 -35 -35 опасность
обморожения
1034.5 1025.7 -34.5 -28.5 0.0 71
09 12.01 СВ 2 24 км ясно -32.6 -35.5 75 -39 -39 опасность
обморожения
1033.8 1025.0
12 12.01 С 3 24 км ледяные иглы {снег} ясно -34.5 -37.8 72 -44 -44 опасность
обморожения
1032.6 1023.8 -37.6 -28.5 0.0 37
15 12.01 СВ 2 24 км 5/5 300 м
[]
-32.8 -35.7 75 -39 -39 опасность
обморожения
1031.8 1023.0
18 12.01 СВ 5 24 км ледяные иглы {снег} 9/1 300 м
[Sc Ac und Ci fib]
-30.9 -34.0 74 -43 -43 опасность
обморожения
1029.5 1020.8 -37.6 -29.3 0.0 37
21 12.01 В 6 24 км 10/10 300 м
[]
-27.8 -30.8 75 -40 -40 опасность
обморожения
1026.4 1017.7
00 13.01 В 8 1600 м слаб. снег 9/5 50 м
[Sc Ac As]
-24.8 -27.6 77 -39 -39 опасность
обморожения
1021.0 1012.4 -37.6 -24.7 0.4 37
03 13.01 ЮВ 11 1600 м 9/9 100 м
[]
-19.4 -21.7 82 -33 -33 опасность
обморожения
1014.2 1005.7
06 15.01 С 9 24 км 4/4 1500 м
[Sc]
-30.7 -34.5 69 -47 -47 опасность
обморожения
1006.9 998.4 73
09 15.01 С 9 19 км 4/4 1000 м
[]
-32.7 -36.7 67 -50 -50 опасность
обморожения
1006.9 998.4
12 15.01 С 8 19 км позёмок ясно -33.4 -37.4 67 -50 -50 опасность
обморожения
1006.8 998.3 45
15 15.01 С 7 24 км ясно -34.9 -39.0 66 -51 -51 опасность
обморожения
1007.4 998.8
18 15.01 С 6 24 км ясно -35.2 -39.4 65 -50 -50 опасность
обморожения
1007.2 998.6 -30.7
21 15.01 С 5 24 км ясно -35.5 -39.8 65 -49 -49 опасность
обморожения
1007.2 998.6
00 16.01 С 8 24 км ясно -37.2 -41.4 65 -55 -55 опасность
обморожения
1006.7 998.1 -37.5 -33.0
03 16.01 СВ 5 24 км ясно -39.6 -43.6 65 -54 -54 опасность
обморожения
1006.5 997.8
09 16.01 СВ 4 24 км ясно -38.3 -41.8 69 -51 -51 опасность
обморожения
1005.4 996.7
12 16.01 С 4 24 км ясно -40.9 -44.4 69 -55 -55 опасность
обморожения
1005.1 996.4
15 16.01 С 5 19 км 1/0
[]
-40.6 -44.2 68 -55 -55 опасность
обморожения
1005.0 996.3
18 16.01 С 5 19 км ледяные иглы {снег} 1/0
[Ac lent]
-38.6 -42.3 68 -53 -53 опасность
обморожения
1004.7 996.0 0.0 45

 

Местоположение метеостанции Корал-Харбор (Нунавут, Канада): широта 64.20 долгота -83.36 высота над уровнем моря 64 м.

В архиве по умолчанию представлена погода в Корал-Харборе за последнюю неделю. Архивные данные за месяц целиком и за предыдущие месяцы, начиная с января 2011 года, Вы можете получить, выбрав интересующий диапазон дат из раскрывающегося списка и нажав кнопку "Ввод!".


*Определитесь, кто Вы:
робот инопланетянин человек

Внимание! Время в таблицах - всемирное. Для получения местного времени необходимо прибавить поправку, которая равна -5 ч.

Смотрите также архив погоды в соседних городах и на ближайших метеорологических станциях:

Погода в Кейп-Дорсете (Нунавут, Канада) (330 км)
Погода в Вейджер Бэй (Нунавут, Канада) (340 км)
Погода в Ранкин-Инлете (Нунавут, Канада) (460 км)
Погода в Холл Бич (Нунавут, Канада) (518 км)
Погода в Кам Фор (Нунавут, Канада) (549 км)
Погода в Кугааруке (Нунавут, Канада) (560 км)
Погода на Острове Роули (Нунавут, Канада) (575 км)
Погода в Национальном парке Пингалюи (Квебек, Канада) (589 км)
Погода в Бейкер Лейк (Нунавут, Канада) (610 км)
Погода в Бейкер-Лейке (Нунавут, Канада) (613 км)

Пояснения к столбцам:

Ветер - указаны скорость ветра в м/с - средняя за 10 мин, порывы в срок и между сроками (в фигурных скобках) и направление, откуда дует ветер: С - северный, СВ - северо-восточный, В - восточный, ЮВ - юго-восточный, Ю - южный, ЮЗ - юго-западный, З - западный, СЗ - северо-западный.
Видимость - горизонтальная дальность видимости в метрах или километрах. При видимости от 1 до 10 км при отсутствии осадков обычно наблюдается дымка, при ухудшении видимости до 1 км и менее - туман. В сухую погоду видимость может ухудшаться дымом, пылью или мглою.
Явления - указаны атмосферные явления, наблюдавшиеся в срок или в последний час перед сроком; фигурными скобками обозначены явления, наблюдавшиеся между сроками (за 1-3 часа до срока); квадратными скобками обозначены град или гололедные отложения с указанием их диаметра в мм.
Облачность - указаны через наклонную черту общая и нижняя облачность в баллах и высота нижней границы облаков в метрах; квадратными скобками обозначены формы облаков: Ci - перистые, Cs - перисто-слоистые, Cc - перисто-кучевые, Ac - высококучевые, As - высокослоистые, Sc - слоисто-кучевые, Ns - слоисто-дождевые, Cu - кучевые, Cb - кучево-дождевые. Подробнее классификацию облаков см. в Атласе облаков (PDF).
T - Температура воздуха - температура, измеренная на высоте 2 м над землей.
Td - Температура точки росы - температура, при понижении до которой содержащийся в воздухе водяной пар достигнет насыщения.
f - Относительная влажность воздуха - влажноcть воздуха, измеренная на высоте 2 м над землей.
Te - Эффективная температура - температура, которую ощущает одетый по сезону человек в тени. Характеристика душности погоды. При расчете учитывается влияние влажности воздуха и скорости ветра на теплоощущения человека.
Tes - Эффективная температура на солнце - температура, которую ощущает человек, с поправкой на солнечный нагрев. Характеристика знойности погоды. Зависит от высоты солнца над горизонтом, облачности и скорости ветра. Ночью, в пасмурную погоду, а также при ветре 12 м/с и более поправка равна нулю.
P - Атмосферное давление - приведенное к уровню моря атмосферное давление.
Po - Атмосферное давление - измеренное на уровне метеостанции атмосферное давление.
Tmin - Минимальная температура - минимум температуры воздуха на высоте 2 м над землей.
Tmax - Максимальная температура - максимум температуры воздуха на высоте 2 м над землей.
R - Количество осадков - Количество выпавших осадков за период времени, мм. При наведении курсора мыши на число - период времени, за который выпало указанное количество осадков.
R24 - Количество осадков - Количество выпавших осадков за 24 часа, мм.
S - Снежный покров - Высота снежного покрова, см. При наведении курсора мыши на число - состояние снежного покрова и степень покрытия местности в баллах.